Location: Newark
(40.1631°N, 15.6720°E)
Time: 22:30:37
(UTC+00:00)

Starlink Launch 2 trailer - Visible Passes

Search period start: 11 December 2019 00:00
Search period end: 21 December 2019 00:00
Orbit: 279 x 281 km, 53.0° (Epoch: 13 November)

Date Brightness Start Highest point End Pass type
(mag) Time Alt. Az. Time Alt. Az. Time Alt. Az.
11 Dec 5.8 03:57:58 14° ESE 03:57:58 14° ESE 03:58:25 10° ESE visible
12 Dec 5.8 04:00:16 11° SE 04:00:16 11° SE 04:00:25 10° SE visible
19 Dec 5.0 17:13:15 10° S 17:13:44 13° S 17:13:44 13° S visible
20 Dec 4.0 17:14:38 10° SSW 17:16:03 28° SSW 17:16:03 28° SSW visible
